Find Starlink 32248

NORAD ID: 61219 Int'l Des: 2024-171 Owner: SPXS Country: US Constellation: starlink operational
LEOCIRCULAR

当前视图

正在加载3D地球...

About Starlink 32248

Starlink 32248 (NORAD 61219) is a starlink constellation satellite (v2 mini) launched Sep 20, 2024 by SPXS of US. It operates in LEO, CIRCULAR orbit with a mass of 730.00 kg.

即将过境

Passes for default location (London). Set your location on the main map for personalized predictions.

高度历史

Loading altitude history...

两行轨道根数

1 61219U 24171V 26261.95605844 .00000625 00000-0 31913-4 0 9996
2 61219 53.1599 143.6610 0001357 87.7030 272.4127 15.31705567112880
Epoch: Sep 18, 2026 • Age: 61 hours

当前状态

高度 475.6 km
远地点 / 近地点 N/A
速度 7.63 km/s
星下点 49.45°N, 6.99°E
发射日期 Sep 20, 2024
运行时间 1.9 years
类型 internet

技术详情

分类 Payload
质量 730.00 kg
干质量 700.00 kg
长度 0.30 m
跨度 29.00 m
形状 ? Box + pan
制造商 SPXS
平台类型 Starlink V2M
阶段状态 In Orbit
所有者/国家 SPXS/US

Most Searched